Year,Month,Day,Hour,Minute,Value (Times are PST for temperature in C)
2009,08,15,00,00,12.60
2009,08,15,00,01,12.60
2009,08,15,00,02,12.60
2009,08,15,00,03,12.60
2009,08,15,00,04,12.60
2009,08,15,00,05,12.60
2009,08,15,00,06,12.60
2009,08,15,00,07,12.60
2009,08,15,00,08,12.60
2009,08,15,00,09,12.60
2009,08,15,00,10,12.60
2009,08,15,00,11,12.50
2009,08,15,00,12,12.50
2009,08,15,00,13,12.60
2009,08,15,00,14,12.60
2009,08,15,00,15,12.60
2009,08,15,00,16,12.70
2009,08,15,00,17,12.70
2009,08,15,00,18,12.80
2009,08,15,00,19,12.80
2009,08,15,00,20,12.80
2009,08,15,00,21,12.80
2009,08,15,00,22,12.80
2009,08,15,00,23,12.80
2009,08,15,00,24,12.70
2009,08,15,00,25,12.70
2009,08,15,00,26,12.60
2009,08,15,00,27,12.50
2009,08,15,00,28,12.30
2009,08,15,00,29,12.30
2009,08,15,00,30,12.20
2009,08,15,00,31,12.10
2009,08,15,00,32,12.00
2009,08,15,00,33,12.00
2009,08,15,00,34,11.90
2009,08,15,00,35,11.90
2009,08,15,00,36,11.80
2009,08,15,00,37,11.80
2009,08,15,00,38,11.80
2009,08,15,00,39,11.70
2009,08,15,00,40,11.70
2009,08,15,00,41,11.60
2009,08,15,00,42,11.60
2009,08,15,00,43,11.60
2009,08,15,00,44,11.60
2009,08,15,00,45,11.60
2009,08,15,00,46,11.50
2009,08,15,00,47,11.40
2009,08,15,00,48,11.40
2009,08,15,00,49,11.40
2009,08,15,00,50,11.40
2009,08,15,00,51,11.40
2009,08,15,00,52,11.40
2009,08,15,00,53,11.40
2009,08,15,00,54,11.40
2009,08,15,00,55,11.40
2009,08,15,00,56,11.40
2009,08,15,00,57,11.40
2009,08,15,00,58,11.40
2009,08,15,00,59,11.40
2009,08,15,01,00,11.40
2009,08,15,01,01,11.40
2009,08,15,01,02,11.40
2009,08,15,01,03,11.40
2009,08,15,01,04,11.50
2009,08,15,01,05,11.60
2009,08,15,01,06,11.60
2009,08,15,01,07,11.60
2009,08,15,01,08,11.60
2009,08,15,01,09,11.60
2009,08,15,01,10,11.70
2009,08,15,01,11,11.70
2009,08,15,01,12,11.70
2009,08,15,01,13,11.70
2009,08,15,01,14,11.70
2009,08,15,01,15,11.70
2009,08,15,01,16,11.70
2009,08,15,01,17,11.70
2009,08,15,01,18,11.70
2009,08,15,01,19,11.60
2009,08,15,01,20,11.60
2009,08,15,01,21,11.60
2009,08,15,01,22,11.60
2009,08,15,01,23,11.60
2009,08,15,01,24,11.60
2009,08,15,01,25,11.60
2009,08,15,01,26,11.60
2009,08,15,01,27,11.60
2009,08,15,01,28,11.60
2009,08,15,01,29,11.60
2009,08,15,01,30,11.60
2009,08,15,01,31,11.50
2009,08,15,01,32,11.40
2009,08,15,01,33,11.40
2009,08,15,01,34,11.40
2009,08,15,01,35,11.40
2009,08,15,01,36,11.40
2009,08,15,01,37,11.40
2009,08,15,01,38,11.30
2009,08,15,01,39,11.30
2009,08,15,01,40,11.20
2009,08,15,01,41,11.20
2009,08,15,01,42,11.20
2009,08,15,01,43,11.20
2009,08,15,01,44,11.10
2009,08,15,01,45,11.10
2009,08,15,01,46,11.10
2009,08,15,01,47,11.10
2009,08,15,01,48,11.10
2009,08,15,01,49,11.10
2009,08,15,01,50,11.10
2009,08,15,01,51,11.20
2009,08,15,01,52,11.10
2009,08,15,01,53,11.10
2009,08,15,01,54,11.10
2009,08,15,01,55,11.10
2009,08,15,01,56,11.10
2009,08,15,01,57,11.10
2009,08,15,01,58,11.10
2009,08,15,01,59,11.10
2009,08,15,02,00,11.10
2009,08,15,02,01,11.10
2009,08,15,02,02,11.10
2009,08,15,02,03,11.10
2009,08,15,02,04,11.10
2009,08,15,02,05,11.10
2009,08,15,02,06,11.10
2009,08,15,02,07,11.10
2009,08,15,02,08,11.10
2009,08,15,02,09,11.10
2009,08,15,02,10,11.10
2009,08,15,02,11,11.10
2009,08,15,02,12,11.10
2009,08,15,02,13,11.10
2009,08,15,02,14,11.10
2009,08,15,02,15,11.10
2009,08,15,02,16,11.10
2009,08,15,02,17,11.10
2009,08,15,02,18,11.00
2009,08,15,02,19,10.90
2009,08,15,02,20,10.90
2009,08,15,02,21,10.90
2009,08,15,02,22,10.90
2009,08,15,02,23,10.90
2009,08,15,02,24,10.90
2009,08,15,02,25,10.90
2009,08,15,02,26,10.90
2009,08,15,02,27,10.90
2009,08,15,02,28,10.90
2009,08,15,02,29,10.90
2009,08,15,02,30,10.90
2009,08,15,02,31,10.80
2009,08,15,02,32,10.80
2009,08,15,02,33,10.80
2009,08,15,02,34,10.80
2009,08,15,02,35,10.80
2009,08,15,02,36,10.80
2009,08,15,02,37,10.80
2009,08,15,02,38,10.80
2009,08,15,02,39,10.80
2009,08,15,02,40,10.70
2009,08,15,02,41,10.70
2009,08,15,02,42,10.70
2009,08,15,02,43,10.70
2009,08,15,02,44,10.60
2009,08,15,02,45,10.60
2009,08,15,02,46,10.60
2009,08,15,02,47,10.60
2009,08,15,02,48,10.60
2009,08,15,02,49,10.60
2009,08,15,02,50,10.50
2009,08,15,02,51,10.40
2009,08,15,02,52,10.40
2009,08,15,02,53,10.40
2009,08,15,02,54,10.40
2009,08,15,02,55,10.40
2009,08,15,02,56,10.30
2009,08,15,02,57,10.30
2009,08,15,02,58,10.30
2009,08,15,02,59,10.20
2009,08,15,03,00,10.20
2009,08,15,03,01,10.20
2009,08,15,03,02,10.20
2009,08,15,03,03,10.10
2009,08,15,03,04,10.10
2009,08,15,03,05,10.10
2009,08,15,03,06,10.10
2009,08,15,03,07,10.10
2009,08,15,03,08,10.10
2009,08,15,03,09,10.10
2009,08,15,03,10,10.10
2009,08,15,03,11,10.10
2009,08,15,03,12,10.10
2009,08,15,03,13,10.10
2009,08,15,03,14,10.10
2009,08,15,03,15,10.10
2009,08,15,03,16,10.10
2009,08,15,03,17,10.10
2009,08,15,03,18,10.10
2009,08,15,03,19,9.90
2009,08,15,03,20,9.90
2009,08,15,03,21,9.90
2009,08,15,03,22,9.90
2009,08,15,03,23,9.90
2009,08,15,03,24,9.90
2009,08,15,03,25,9.90
2009,08,15,03,26,9.90
2009,08,15,03,27,9.90
2009,08,15,03,28,9.90
2009,08,15,03,29,9.90
2009,08,15,03,30,9.90
2009,08,15,03,31,9.90
2009,08,15,03,32,9.90
2009,08,15,03,33,9.90
2009,08,15,03,34,9.90
2009,08,15,03,35,9.90
2009,08,15,03,36,9.90
2009,08,15,03,37,9.90
2009,08,15,03,38,9.90
2009,08,15,03,39,9.90
2009,08,15,03,40,9.90
2009,08,15,03,41,9.90
2009,08,15,03,42,9.90
2009,08,15,03,43,9.80
2009,08,15,03,44,9.80
2009,08,15,03,45,9.80
2009,08,15,03,46,9.80
2009,08,15,03,47,9.80
2009,08,15,03,48,9.70
2009,08,15,03,49,9.70
2009,08,15,03,50,9.70
2009,08,15,03,51,9.70
2009,08,15,03,52,9.70
2009,08,15,03,53,9.70
2009,08,15,03,54,9.70
2009,08,15,03,55,9.70
2009,08,15,03,56,9.70
2009,08,15,03,57,9.70
2009,08,15,03,58,9.70
2009,08,15,03,59,9.70
2009,08,15,04,00,9.70
2009,08,15,04,01,9.70
2009,08,15,04,02,9.70
2009,08,15,04,03,9.60
2009,08,15,04,04,9.60
2009,08,15,04,05,9.60
2009,08,15,04,06,9.60
2009,08,15,04,07,9.60
2009,08,15,04,08,9.60
2009,08,15,04,09,9.60
2009,08,15,04,10,9.60
2009,08,15,04,11,9.60
2009,08,15,04,12,9.60
2009,08,15,04,13,9.50
2009,08,15,04,14,9.50
2009,08,15,04,15,9.50
2009,08,15,04,16,9.50
2009,08,15,04,17,9.50
2009,08,15,04,18,9.50
2009,08,15,04,19,9.50
2009,08,15,04,20,9.50
2009,08,15,04,21,9.40
2009,08,15,04,22,9.40
2009,08,15,04,23,9.40
2009,08,15,04,24,9.40
2009,08,15,04,25,9.40
2009,08,15,04,26,9.40
2009,08,15,04,27,9.50
2009,08,15,04,28,9.50
2009,08,15,04,29,9.50
2009,08,15,04,30,9.50
2009,08,15,04,31,9.50
2009,08,15,04,32,9.50
2009,08,15,04,33,9.50
2009,08,15,04,34,9.50
2009,08,15,04,35,9.50
2009,08,15,04,36,9.50
2009,08,15,04,37,9.50
2009,08,15,04,38,9.50
2009,08,15,04,39,9.50
2009,08,15,04,40,9.50
2009,08,15,04,41,9.50
2009,08,15,04,42,9.50
2009,08,15,04,43,9.50
2009,08,15,04,44,9.50
2009,08,15,04,45,9.50
2009,08,15,04,46,9.50
2009,08,15,04,47,9.50
2009,08,15,04,48,9.50
2009,08,15,04,49,9.50
2009,08,15,04,50,9.50
2009,08,15,04,51,9.50
2009,08,15,04,52,9.50
2009,08,15,04,53,9.50
2009,08,15,04,54,9.50
2009,08,15,04,55,9.40
2009,08,15,04,56,9.50
2009,08,15,04,57,9.50
2009,08,15,04,58,9.50
2009,08,15,04,59,9.50
2009,08,15,05,00,9.50
2009,08,15,05,01,9.50
2009,08,15,05,02,9.40
2009,08,15,05,03,9.40
2009,08,15,05,04,9.40
2009,08,15,05,05,9.40
2009,08,15,05,06,9.40
2009,08,15,05,07,9.40
2009,08,15,05,08,9.30
2009,08,15,05,09,9.30
2009,08,15,05,10,9.30
2009,08,15,05,11,9.30
2009,08,15,05,12,9.30
2009,08,15,05,13,9.30
2009,08,15,05,14,9.30
2009,08,15,05,15,9.30
2009,08,15,05,16,9.30
2009,08,15,05,17,9.30
2009,08,15,05,18,9.30
2009,08,15,05,19,9.20
2009,08,15,05,20,9.20
2009,08,15,05,21,9.20
2009,08,15,05,22,9.20
2009,08,15,05,23,9.20
2009,08,15,05,24,9.20
2009,08,15,05,25,9.20
2009,08,15,05,26,9.10
2009,08,15,05,27,9.10
2009,08,15,05,28,9.10
2009,08,15,05,29,9.10
2009,08,15,05,30,9.10
2009,08,15,05,31,9.10
2009,08,15,05,32,9.10
2009,08,15,05,33,9.10
2009,08,15,05,34,9.10
2009,08,15,05,35,9.10
2009,08,15,05,36,9.10
2009,08,15,05,37,9.10
2009,08,15,05,38,9.10
2009,08,15,05,39,9.10
2009,08,15,05,40,9.00
2009,08,15,05,41,9.00
2009,08,15,05,42,9.00
2009,08,15,05,43,9.00
2009,08,15,05,44,9.00
2009,08,15,05,45,8.90
2009,08,15,05,46,8.90
2009,08,15,05,47,8.90
2009,08,15,05,48,8.90
2009,08,15,05,49,8.90
2009,08,15,05,50,8.90
2009,08,15,05,51,8.90
2009,08,15,05,52,8.90
2009,08,15,05,53,8.90
2009,08,15,05,54,8.90
2009,08,15,05,55,8.90
2009,08,15,05,56,8.80
2009,08,15,05,57,8.80
2009,08,15,05,58,8.80
2009,08,15,05,59,8.80
2009,08,15,06,00,8.80
2009,08,15,06,01,8.80
2009,08,15,06,02,8.80
2009,08,15,06,03,8.80
2009,08,15,06,04,8.80
2009,08,15,06,05,8.80
2009,08,15,06,06,8.80
2009,08,15,06,07,8.80
2009,08,15,06,08,8.90
2009,08,15,06,09,8.90
2009,08,15,06,10,8.90
2009,08,15,06,11,8.90
2009,08,15,06,12,8.90
2009,08,15,06,13,8.90
2009,08,15,06,14,9.00
2009,08,15,06,15,9.00
2009,08,15,06,16,9.00
2009,08,15,06,17,9.00
2009,08,15,06,18,9.00
2009,08,15,06,19,9.00
2009,08,15,06,20,9.10
2009,08,15,06,21,9.10
2009,08,15,06,22,9.10
2009,08,15,06,23,9.10
2009,08,15,06,24,9.10
2009,08,15,06,25,9.10
2009,08,15,06,26,9.20
2009,08,15,06,27,9.20
2009,08,15,06,28,9.20
2009,08,15,06,29,9.20
2009,08,15,06,30,9.20
2009,08,15,06,31,9.20
2009,08,15,06,32,9.20
2009,08,15,06,33,9.30
2009,08,15,06,34,9.30
2009,08,15,06,35,9.30
2009,08,15,06,36,9.30
2009,08,15,06,37,9.40
2009,08,15,06,38,9.40
2009,08,15,06,39,9.40
2009,08,15,06,40,9.50
2009,08,15,06,41,9.50
2009,08,15,06,42,9.50
2009,08,15,06,43,9.60
2009,08,15,06,44,9.60
2009,08,15,06,45,9.60
2009,08,15,06,46,9.60
2009,08,15,06,47,9.60
2009,08,15,06,48,9.60
2009,08,15,06,49,9.70
2009,08,15,06,50,9.70
2009,08,15,06,51,9.70
2009,08,15,06,52,9.70
2009,08,15,06,53,9.70
2009,08,15,06,54,9.70
2009,08,15,06,55,9.70
2009,08,15,06,56,9.70
2009,08,15,06,57,9.70
2009,08,15,06,58,9.70
2009,08,15,06,59,9.80
2009,08,15,07,00,9.80
2009,08,15,07,01,9.80
2009,08,15,07,02,9.90
2009,08,15,07,03,9.90
2009,08,15,07,04,9.90
2009,08,15,07,05,9.90
2009,08,15,07,06,9.90
2009,08,15,07,07,9.90
2009,08,15,07,08,9.90
2009,08,15,07,09,9.90
2009,08,15,07,10,9.90
2009,08,15,07,11,10.00
2009,08,15,07,12,10.10
2009,08,15,07,13,10.10
2009,08,15,07,14,10.10
2009,08,15,07,15,10.10
2009,08,15,07,16,10.20
2009,08,15,07,17,10.20
2009,08,15,07,18,10.20
2009,08,15,07,19,10.30
2009,08,15,07,20,10.30
2009,08,15,07,21,10.40
2009,08,15,07,22,10.40
2009,08,15,07,23,10.40
2009,08,15,07,24,10.40
2009,08,15,07,25,10.50
2009,08,15,07,26,10.60
2009,08,15,07,27,10.60
2009,08,15,07,28,10.60
2009,08,15,07,29,10.60
2009,08,15,07,30,10.60
2009,08,15,07,31,10.70
2009,08,15,07,32,10.70
2009,08,15,07,33,10.80
2009,08,15,07,34,10.80
2009,08,15,07,35,10.90
2009,08,15,07,36,10.90
2009,08,15,07,37,10.90
2009,08,15,07,38,10.90
2009,08,15,07,39,10.90
2009,08,15,07,40,10.90
2009,08,15,07,41,10.90
2009,08,15,07,42,10.90
2009,08,15,07,43,10.90
2009,08,15,07,44,10.90
2009,08,15,07,45,10.90
2009,08,15,07,46,10.90
2009,08,15,07,47,10.90
2009,08,15,07,48,10.90
2009,08,15,07,49,11.00
2009,08,15,07,50,11.10
2009,08,15,07,51,11.10
2009,08,15,07,52,11.10
2009,08,15,07,53,11.10
2009,08,15,07,54,11.10
2009,08,15,07,55,11.20
2009,08,15,07,56,11.20
2009,08,15,07,57,11.30
2009,08,15,07,58,11.30
2009,08,15,07,59,11.30
2009,08,15,08,00,11.40
2009,08,15,08,01,11.40
2009,08,15,08,02,11.40
2009,08,15,08,03,11.40
2009,08,15,08,04,11.40
2009,08,15,08,05,11.50
2009,08,15,08,06,11.60
2009,08,15,08,07,11.60
2009,08,15,08,08,11.60
2009,08,15,08,09,11.60
2009,08,15,08,10,11.60
2009,08,15,08,11,11.60
2009,08,15,08,12,11.60
2009,08,15,08,13,11.60
2009,08,15,08,14,11.60
2009,08,15,08,15,11.70
2009,08,15,08,16,11.70
2009,08,15,08,17,11.80
2009,08,15,08,18,11.80
2009,08,15,08,19,11.80
2009,08,15,08,20,11.80
2009,08,15,08,21,11.90
2009,08,15,08,22,11.90
2009,08,15,08,23,11.90
2009,08,15,08,24,11.90
2009,08,15,08,25,11.90
2009,08,15,08,26,11.90
2009,08,15,08,27,12.00
2009,08,15,08,28,12.00
2009,08,15,08,29,12.00
2009,08,15,08,30,12.10
2009,08,15,08,31,12.10
2009,08,15,08,32,12.20
2009,08,15,08,33,12.20
2009,08,15,08,34,12.30
2009,08,15,08,35,12.30
2009,08,15,08,36,12.30
2009,08,15,08,37,12.40
2009,08,15,08,38,12.40
2009,08,15,08,39,12.40
2009,08,15,08,40,12.50
2009,08,15,08,41,12.50
2009,08,15,08,42,12.60
2009,08,15,08,43,12.60
2009,08,15,08,44,12.70
2009,08,15,08,45,12.70
2009,08,15,08,46,12.70
2009,08,15,08,47,12.80
2009,08,15,08,48,12.80
2009,08,15,08,49,12.80
2009,08,15,08,50,12.80
2009,08,15,08,51,12.80
2009,08,15,08,52,12.80
2009,08,15,08,53,12.90
2009,08,15,08,54,12.90
2009,08,15,08,55,12.90
2009,08,15,08,56,13.00
2009,08,15,08,57,13.00
2009,08,15,08,58,13.10
2009,08,15,08,59,13.10
2009,08,15,09,00,13.10
2009,08,15,09,01,13.10
2009,08,15,09,02,13.10
2009,08,15,09,03,13.10
2009,08,15,09,04,13.10
2009,08,15,09,05,13.10
2009,08,15,09,06,13.10
2009,08,15,09,07,13.10
2009,08,15,09,08,13.10
2009,08,15,09,09,13.10
2009,08,15,09,10,13.10
2009,08,15,09,11,13.10
2009,08,15,09,12,13.10
2009,08,15,09,13,13.10
2009,08,15,09,14,13.10
2009,08,15,09,15,13.10
2009,08,15,09,16,13.20
2009,08,15,09,17,13.20
2009,08,15,09,18,13.20
2009,08,15,09,19,13.20
2009,08,15,09,20,13.20
2009,08,15,09,21,13.20
2009,08,15,09,22,13.20
2009,08,15,09,23,13.30
2009,08,15,09,24,13.30
2009,08,15,09,25,13.30
2009,08,15,09,26,13.30
2009,08,15,09,27,13.30
2009,08,15,09,28,13.30
2009,08,15,09,29,13.30
2009,08,15,09,30,13.30
2009,08,15,09,31,13.40
2009,08,15,09,32,13.40
2009,08,15,09,33,13.40
2009,08,15,09,34,13.50
2009,08,15,09,35,13.50
2009,08,15,09,36,13.50
2009,08,15,09,37,13.50
2009,08,15,09,38,13.60
2009,08,15,09,39,13.60
2009,08,15,09,40,13.60
2009,08,15,09,41,13.70
2009,08,15,09,42,13.70
2009,08,15,09,43,13.70
2009,08,15,09,44,13.70
2009,08,15,09,45,13.70
2009,08,15,09,46,13.70
2009,08,15,09,47,13.70
2009,08,15,09,48,13.70
2009,08,15,09,49,13.80
2009,08,15,09,50,13.80
2009,08,15,09,51,13.90
2009,08,15,09,52,13.90
2009,08,15,09,53,13.90
2009,08,15,09,54,14.00
2009,08,15,09,55,14.10
2009,08,15,09,56,14.10
2009,08,15,09,57,14.20
2009,08,15,09,58,14.30
2009,08,15,09,59,14.30
2009,08,15,10,00,14.40
2009,08,15,10,01,14.40
2009,08,15,10,02,14.40
2009,08,15,10,03,14.40
2009,08,15,10,04,14.40
2009,08,15,10,05,14.40
2009,08,15,10,06,14.50
2009,08,15,10,07,14.50
2009,08,15,10,08,14.50
2009,08,15,10,09,14.50
2009,08,15,10,10,14.50
2009,08,15,10,11,14.50
2009,08,15,10,12,14.50
2009,08,15,10,13,14.40
2009,08,15,10,14,14.50
2009,08,15,10,15,14.50
2009,08,15,10,16,14.50
2009,08,15,10,17,14.50
2009,08,15,10,18,14.60
2009,08,15,10,19,14.60
2009,08,15,10,20,14.60
2009,08,15,10,21,14.70
2009,08,15,10,22,14.70
2009,08,15,10,23,14.80
2009,08,15,10,24,14.80
2009,08,15,10,25,14.80
2009,08,15,10,26,14.80
2009,08,15,10,27,14.80
2009,08,15,10,28,14.80
2009,08,15,10,29,14.80
2009,08,15,10,30,14.80
2009,08,15,10,31,14.80
2009,08,15,10,32,14.80
2009,08,15,10,33,14.90
2009,08,15,10,34,14.90
2009,08,15,10,35,14.90
2009,08,15,10,36,14.80
2009,08,15,10,37,14.90
2009,08,15,10,38,14.90
2009,08,15,10,39,15.00
2009,08,15,10,40,15.00
2009,08,15,10,41,15.00
2009,08,15,10,42,15.10
2009,08,15,10,43,15.10
2009,08,15,10,44,15.10
2009,08,15,10,45,15.10
2009,08,15,10,46,15.20
2009,08,15,10,47,15.20
2009,08,15,10,48,15.20
2009,08,15,10,49,15.20
2009,08,15,10,50,15.20
2009,08,15,10,51,15.30
2009,08,15,10,52,15.30
2009,08,15,10,53,15.40
2009,08,15,10,54,15.40
2009,08,15,10,55,15.30
2009,08,15,10,56,15.30
2009,08,15,10,57,15.30
2009,08,15,10,58,15.30
2009,08,15,10,59,15.30
2009,08,15,11,00,15.30
2009,08,15,11,01,15.30
2009,08,15,11,02,15.30
2009,08,15,11,03,15.30
2009,08,15,11,04,15.30
2009,08,15,11,05,15.30
2009,08,15,11,06,15.40
2009,08,15,11,07,15.50
2009,08,15,11,08,15.60
2009,08,15,11,09,15.60
2009,08,15,11,10,15.60
2009,08,15,11,11,15.50
2009,08,15,11,12,15.50
2009,08,15,11,13,15.60
2009,08,15,11,14,15.60
2009,08,15,11,15,15.60
2009,08,15,11,16,15.70
2009,08,15,11,17,15.70
2009,08,15,11,18,15.70
2009,08,15,11,19,15.70
2009,08,15,11,20,15.70
2009,08,15,11,21,15.60
2009,08,15,11,22,15.60
2009,08,15,11,23,15.60
2009,08,15,11,24,15.50
2009,08,15,11,25,15.40
2009,08,15,11,26,15.20
2009,08,15,11,27,15.20
2009,08,15,11,28,15.10
2009,08,15,11,29,15.10
2009,08,15,11,30,15.10
2009,08,15,11,31,15.00
2009,08,15,11,32,14.90
2009,08,15,11,33,14.90
2009,08,15,11,34,14.90
2009,08,15,11,35,15.00
2009,08,15,11,36,15.00
2009,08,15,11,37,15.00
2009,08,15,11,38,15.00
2009,08,15,11,39,15.00
2009,08,15,11,40,14.90
2009,08,15,11,41,14.80
2009,08,15,11,42,14.80
2009,08,15,11,43,14.60
2009,08,15,11,44,14.60
2009,08,15,11,45,14.60
2009,08,15,11,46,14.70
2009,08,15,11,47,14.80
2009,08,15,11,48,14.70
2009,08,15,11,49,14.60
2009,08,15,11,50,14.50
2009,08,15,11,51,14.50
2009,08,15,11,52,14.40
2009,08,15,11,53,14.40
2009,08,15,11,54,14.50
2009,08,15,11,55,14.50
2009,08,15,11,56,14.50
2009,08,15,11,57,14.50
2009,08,15,11,58,14.50
2009,08,15,11,59,14.60
2009,08,15,12,00,14.60
2009,08,15,12,01,14.70
2009,08,15,12,02,14.70
2009,08,15,12,03,14.70
2009,08,15,12,04,14.70
2009,08,15,12,05,14.80
2009,08,15,12,06,14.80
2009,08,15,12,07,14.90
2009,08,15,12,08,15.00
2009,08,15,12,09,15.00
2009,08,15,12,10,15.00
2009,08,15,12,11,14.90
2009,08,15,12,12,15.00
2009,08,15,12,13,15.00
2009,08,15,12,14,15.00
2009,08,15,12,15,15.00
2009,08,15,12,16,15.00
2009,08,15,12,17,15.00
2009,08,15,12,18,14.90
2009,08,15,12,19,14.90
2009,08,15,12,20,14.90
2009,08,15,12,21,15.00
2009,08,15,12,22,15.00
2009,08,15,12,23,15.10
2009,08,15,12,24,15.20
2009,08,15,12,25,15.20
2009,08,15,12,26,15.30
2009,08,15,12,27,15.40
2009,08,15,12,28,15.40
2009,08,15,12,29,15.30
2009,08,15,12,30,15.40
2009,08,15,12,31,15.40
2009,08,15,12,32,15.30
2009,08,15,12,33,15.30
2009,08,15,12,34,15.30
2009,08,15,12,35,15.30
2009,08,15,12,36,15.30
2009,08,15,12,37,15.30
2009,08,15,12,38,15.30
2009,08,15,12,39,15.30
2009,08,15,12,40,15.30
2009,08,15,12,41,15.40
2009,08,15,12,42,15.50
2009,08,15,12,43,15.50
2009,08,15,12,44,15.50
2009,08,15,12,45,15.40
2009,08,15,12,46,15.40
2009,08,15,12,47,15.40
2009,08,15,12,48,15.40
2009,08,15,12,49,15.40
2009,08,15,12,50,15.50
2009,08,15,12,51,15.60
2009,08,15,12,52,15.80
2009,08,15,12,53,15.90
2009,08,15,12,54,16.00
2009,08,15,12,55,16.10
2009,08,15,12,56,16.10
2009,08,15,12,57,16.20
2009,08,15,12,58,16.20
2009,08,15,12,59,16.10
2009,08,15,13,00,16.10
2009,08,15,13,01,16.10
2009,08,15,13,02,16.20
2009,08,15,13,03,16.20
2009,08,15,13,04,16.30
2009,08,15,13,05,16.10
2009,08,15,13,06,16.10
2009,08,15,13,07,16.10
2009,08,15,13,08,16.20
2009,08,15,13,09,16.30
2009,08,15,13,10,16.40
2009,08,15,13,11,16.40
2009,08,15,13,12,16.30
2009,08,15,13,13,16.20
2009,08,15,13,14,16.20
2009,08,15,13,15,16.20
2009,08,15,13,16,16.20
2009,08,15,13,17,16.10
2009,08,15,13,18,16.10
2009,08,15,13,19,16.10
2009,08,15,13,20,16.10
2009,08,15,13,21,16.10
2009,08,15,13,22,16.20
2009,08,15,13,23,16.20
2009,08,15,13,24,16.20
2009,08,15,13,25,16.20
2009,08,15,13,26,16.30
2009,08,15,13,27,16.60
2009,08,15,13,28,16.80
2009,08,15,13,29,16.90
2009,08,15,13,30,16.90
2009,08,15,13,31,16.90
2009,08,15,13,32,17.00
2009,08,15,13,33,16.90
2009,08,15,13,34,16.80
2009,08,15,13,35,17.00
2009,08,15,13,36,17.00
2009,08,15,13,37,17.00
2009,08,15,13,38,17.00
2009,08,15,13,39,16.90
2009,08,15,13,40,16.90
2009,08,15,13,41,16.80
2009,08,15,13,42,16.60
2009,08,15,13,43,16.50
2009,08,15,13,44,16.40
2009,08,15,13,45,16.40
2009,08,15,13,46,16.50
2009,08,15,13,47,16.60
2009,08,15,13,48,16.70
2009,08,15,13,49,16.70
2009,08,15,13,50,16.80
2009,08,15,13,51,16.70
2009,08,15,13,52,16.90
2009,08,15,13,53,17.00
2009,08,15,13,54,17.00
2009,08,15,13,55,16.90
2009,08,15,13,56,16.80
2009,08,15,13,57,16.70
2009,08,15,13,58,16.70
2009,08,15,13,59,16.70
2009,08,15,14,00,16.70
2009,08,15,14,01,16.80
2009,08,15,14,02,16.80
2009,08,15,14,03,16.90
2009,08,15,14,04,16.90
2009,08,15,14,05,16.90
2009,08,15,14,06,17.00
2009,08,15,14,07,17.10
2009,08,15,14,08,17.10
2009,08,15,14,09,17.00
2009,08,15,14,10,17.00
2009,08,15,14,11,17.10
2009,08,15,14,12,17.20
2009,08,15,14,13,17.30
2009,08,15,14,14,17.40
2009,08,15,14,15,17.40
2009,08,15,14,16,17.40
2009,08,15,14,17,17.50
2009,08,15,14,18,17.60
2009,08,15,14,19,17.70
2009,08,15,14,20,17.60
2009,08,15,14,21,17.50
2009,08,15,14,22,17.30
2009,08,15,14,23,17.30
2009,08,15,14,24,17.20
2009,08,15,14,25,17.20
2009,08,15,14,26,17.20
2009,08,15,14,27,17.20
2009,08,15,14,28,17.10
2009,08,15,14,29,17.20
2009,08,15,14,30,17.20
2009,08,15,14,31,16.90
2009,08,15,14,32,16.70
2009,08,15,14,33,16.60
2009,08,15,14,34,16.60
2009,08,15,14,35,16.50
2009,08,15,14,36,16.50
2009,08,15,14,37,16.60
2009,08,15,14,38,16.60
2009,08,15,14,39,16.60
2009,08,15,14,40,16.60
2009,08,15,14,41,16.60
2009,08,15,14,42,16.50
2009,08,15,14,43,16.40
2009,08,15,14,44,16.40
2009,08,15,14,45,16.40
2009,08,15,14,46,16.50
2009,08,15,14,47,16.60
2009,08,15,14,48,16.70
2009,08,15,14,49,16.70
2009,08,15,14,50,16.70
2009,08,15,14,51,16.70
2009,08,15,14,52,16.70
2009,08,15,14,53,16.70
2009,08,15,14,54,16.70
2009,08,15,14,55,16.80
2009,08,15,14,56,16.90
2009,08,15,14,57,16.90
2009,08,15,14,58,16.90
2009,08,15,14,59,17.00
2009,08,15,15,00,17.10
2009,08,15,15,01,17.30
2009,08,15,15,02,17.30
2009,08,15,15,03,17.40
2009,08,15,15,04,17.60
2009,08,15,15,05,17.80
2009,08,15,15,06,17.80
2009,08,15,15,07,17.70
2009,08,15,15,08,17.60
2009,08,15,15,09,17.60
2009,08,15,15,10,17.60
2009,08,15,15,11,17.60
2009,08,15,15,12,17.60
2009,08,15,15,13,17.60
2009,08,15,15,14,17.60
2009,08,15,15,15,17.60
2009,08,15,15,16,17.50
2009,08,15,15,17,17.50
2009,08,15,15,18,17.50
2009,08,15,15,19,17.50
2009,08,15,15,20,17.60
2009,08,15,15,21,17.70
2009,08,15,15,22,17.70
2009,08,15,15,23,17.70
2009,08,15,15,24,17.70
2009,08,15,15,25,17.70
2009,08,15,15,26,17.60
2009,08,15,15,27,17.50
2009,08,15,15,28,17.50
2009,08,15,15,29,17.50
2009,08,15,15,30,17.50
2009,08,15,15,31,17.50
2009,08,15,15,32,17.50
2009,08,15,15,33,17.60
2009,08,15,15,34,17.70
2009,08,15,15,35,17.80
2009,08,15,15,36,17.90
2009,08,15,15,37,17.90
2009,08,15,15,38,18.00
2009,08,15,15,39,18.10
2009,08,15,15,40,18.10
2009,08,15,15,41,18.10
2009,08,15,15,42,17.90
2009,08,15,15,43,17.90
2009,08,15,15,44,17.80
2009,08,15,15,45,17.60
2009,08,15,15,46,17.50
2009,08,15,15,47,17.40
2009,08,15,15,48,17.40
2009,08,15,15,49,17.40
2009,08,15,15,50,17.40
2009,08,15,15,51,17.40
2009,08,15,15,52,17.40
2009,08,15,15,53,17.40
2009,08,15,15,54,17.50
2009,08,15,15,55,17.70
2009,08,15,15,56,17.80
2009,08,15,15,57,17.90
2009,08,15,15,58,18.00
2009,08,15,15,59,18.20
2009,08,15,16,00,18.20
2009,08,15,16,01,18.10
2009,08,15,16,02,17.90
2009,08,15,16,03,17.80
2009,08,15,16,04,17.70
2009,08,15,16,05,17.50
2009,08,15,16,06,17.50
2009,08,15,16,07,17.40
2009,08,15,16,08,17.40
2009,08,15,16,09,17.40
2009,08,15,16,10,17.30
2009,08,15,16,11,17.30
2009,08,15,16,12,17.30
2009,08,15,16,13,17.10
2009,08,15,16,14,17.00
2009,08,15,16,15,17.00
2009,08,15,16,16,16.90
2009,08,15,16,17,16.90
2009,08,15,16,18,16.80
2009,08,15,16,19,16.70
2009,08,15,16,20,16.70
2009,08,15,16,21,16.70
2009,08,15,16,22,16.70
2009,08,15,16,23,16.70
2009,08,15,16,24,16.60
2009,08,15,16,25,16.60
2009,08,15,16,26,16.60
2009,08,15,16,27,16.60
2009,08,15,16,28,16.60
2009,08,15,16,29,16.60
2009,08,15,16,30,16.60
2009,08,15,16,31,16.60
2009,08,15,16,32,16.50
2009,08,15,16,33,16.40
2009,08,15,16,34,16.40
2009,08,15,16,35,16.40
2009,08,15,16,36,16.40
2009,08,15,16,37,16.50
2009,08,15,16,38,16.60
2009,08,15,16,39,16.60
2009,08,15,16,40,16.70
2009,08,15,16,41,16.70
2009,08,15,16,42,16.70
2009,08,15,16,43,16.70
2009,08,15,16,44,16.70
2009,08,15,16,45,16.70
2009,08,15,16,46,16.70
2009,08,15,16,47,16.70
2009,08,15,16,48,16.70
2009,08,15,16,49,16.70
2009,08,15,16,50,16.70
2009,08,15,16,51,16.80
2009,08,15,16,52,16.80
2009,08,15,16,53,16.90
2009,08,15,16,54,17.00
2009,08,15,16,55,17.00
2009,08,15,16,56,17.10
2009,08,15,16,57,17.20
2009,08,15,16,58,17.30
2009,08,15,16,59,17.30
2009,08,15,17,00,17.30
2009,08,15,17,01,17.30
2009,08,15,17,02,17.30
2009,08,15,17,03,17.20
2009,08,15,17,04,17.10
2009,08,15,17,05,17.00
2009,08,15,17,06,16.90
2009,08,15,17,07,16.80
2009,08,15,17,08,16.80
2009,08,15,17,09,16.70
2009,08,15,17,10,16.70
2009,08,15,17,11,16.70
2009,08,15,17,12,16.60
2009,08,15,17,13,16.50
2009,08,15,17,14,16.40
2009,08,15,17,15,16.30
2009,08,15,17,16,16.30
2009,08,15,17,17,16.20
2009,08,15,17,18,16.10
2009,08,15,17,19,16.10
2009,08,15,17,20,16.10
2009,08,15,17,21,16.10
2009,08,15,17,22,16.10
2009,08,15,17,23,16.10
2009,08,15,17,24,16.10
2009,08,15,17,25,16.10
2009,08,15,17,26,16.10
2009,08,15,17,27,16.10
2009,08,15,17,28,16.10
2009,08,15,17,29,16.10